Theta_e
347 343 343 341 337 336 335 330 327 322 321 317 318 316 317 317 316 317 314 314 313 311
345 342 339 339 340 337 335 331 326 324 319 318 318 316 317 314 311 310 310 311 311 310
344 343 343 340 337 335 332 328 325 323 319 317 316 314 314 311 311 310 308 308 310 309
340 343 344 340 335 332 327 325 324 320 318 316 315 314 313 311 308 308 309 309 308 307
341 340 337 334 329 326 325 325 320 321 319 315 314 314 313 309 308 307 306 306 307 306
337 336 330 326 325 324 323 323 321 319 317 317 316 313 309 307 307 306 305 305 305 305
333 328 324 323 323 322 322 321 318 318 318 317 314 311 308 307 306 305 304 304 303 303
325 323 322 321 319 318 319 316 316 315 314 315 313 310 306 305 305 303 302 302 301 302
321 319 317 317 315 314 312 311 311 310 311 310 303 299 301 304 302 302 301 300 301 301
316 314 312 312 311 310 308 309 308 306 304 303 300 297 298 300 302 301 300 300 300 299
311 310 310 308 308 308 308 308 305 302 302 300 298 296 296 299 302 300 299 299 299 299
308 309 307 306 305 306 305 305 302 301 301 298 296 295 295 299 300 297 296 297 296 298
311 309 304 303 303 302 301 297 299 298 299 298 296 293 294 296 295 295 294 296 298 291
308 304 303 301 301 300 298 297 297 296 296 296 295 293 292 293 293 293 293 294 295 295
Wind_Speed
16 10 11 13 13 10 10 9 11 10 11 10 11 8 10 8 6 7 7 10 8 5
15 14 11 13 12 10 11 11 12 12 15 11 10 10 9 8 8 8 7 8 6 5
16 16 16 14 12 14 13 12 14 14 14 12 11 11 9 8 8 9 7 6 7 6
15 17 17 14 13 14 13 15 14 14 14 14 12 11 10 10 9 11 9 7 7 7
18 15 15 14 14 16 15 14 14 17 15 14 13 11 10 9 10 11 9 7 7 7
17 16 15 16 15 15 16 17 16 16 15 15 13 12 10 10 10 10 8 8 7 8
17 17 18 18 17 16 16 19 16 14 15 14 14 12 10 10 9 9 9 8 9 11
15 18 18 17 18 16 16 15 15 15 12 15 12 9 10 10 9 9 9 10 10 12
17 20 19 17 18 18 16 16 15 13 14 14 9 12 11 10 9 9 10 11 10 9
18 20 21 19 18 17 16 16 15 15 14 12 12 14 10 11 9 10 11 11 10 9
22 22 21 21 19 17 16 16 12 15 15 11 9 14 11 10 11 10 11 11 11 10
24 24 23 21 19 15 17 14 14 15 15 12 9 9 7 7 9 10 10 10 12 11
23 24 23 20 16 12 15 16 14 15 13 13 11 11 8 7 7 9 7 7 8 18
21 23 22 19 15 15 16 17 16 17 13 13 11 11 15 12 9 7 5 7 8 10
Wind_Direction
154 159 160 159 159 155 152 146 132 127 107 102 112 100 88 96 99 85 78 70 55 57
156 152 167 162 156 148 133 139 142 135 126 126 117 100 101 108 102 91 76 72 66 57
156 154 163 156 142 134 134 137 142 139 115 108 103 105 102 111 105 95 75 69 65 57
158 163 157 148 140 129 129 133 129 114 109 111 114 111 108 103 107 89 77 67 64 55
158 156 150 140 129 126 130 138 128 127 123 117 113 121 113 106 89 85 79 68 58 43
152 144 133 126 129 127 129 126 130 123 121 121 126 117 111 104 96 88 81 66 55 39
151 133 129 128 129 130 131 131 123 116 123 125 118 117 111 102 97 89 77 65 51 39
143 128 123 123 120 121 119 111 109 114 113 112 115 115 113 99 92 89 80 60 45 43
138 122 120 123 118 116 111 103 100 99 106 98 98 92 87 99 93 82 68 56 46 38
129 121 117 117 113 110 108 109 109 103 90 99 101 91 92 88 84 71 63 55 41 32
123 119 118 114 113 113 111 108 108 100 106 104 96 94 94 87 81 73 63 54 40 33
126 125 120 116 118 119 109 107 112 99 104 96 86 73 66 80 77 72 59 57 43 29
129 123 117 118 120 118 116 115 104 99 86 97 96 60 52 67 76 62 57 56 50 49
121 117 116 116 117 119 113 106 99 91 87 80 72 60 57 47 64 59 58 52 41 38